Regional Weather Roundup
Issued by NWS Newport/Morehead, NC

Current Version | Previous Version | Text Only | Print | Product List | Glossary On
Versions: 1 2 3 4 5 6 7 8 9 10 11 12 13 14 15 16 17 18 19 20 21 22 23 24 25 26 27 28 29 30 31 32 33 34 35 36 37 38 39 40 41 42 43 44 45 46 47 48 49 50
000
ASUS42 KMHX 171025
RWRMHX
WEATHER ROUNDUP FOR EASTERN NORTH CAROLINA
NATIONAL WEATHER SERVICE NEWPORT/MOREHEAD CITY NC
500 AM EST TUE JAN 17 2017

NOTE: "FAIR" INDICATES FEW OR NO CLOUDS BELOW 12,000 FEET
WITH NO SIGNIFICANT WEATHER AND/OR OBSTRUCTIONS TO VISIBILITY

NCZ015>017-031-032-045>047-102-103-171100-
NORTH COAST

CITY           SKY/WX    TMP DP  RH WIND       PRES   REMARKS
EDENTON        CLOUDY    46  42  86 CALM      30.26F
ELIZABETH CITY CLOUDY    42  39  89 SE3       30.26F
KITTY HAWK     NOT AVBL
MANTEO         CLOUDY    44  43  97 CALM      30.27S

$$

NCZ045>047-081-094-103-104-171100-
CENTRAL COAST

CITY           SKY/WX    TMP DP  RH WIND       PRES   REMARKS
FRISCO         CLOUDY    48  44  86 N5        30.26F

$$

NCZ095-097-098-100-101-171100-
SOUTHERN COAST

CITY           SKY/WX    TMP DP  RH WIND       PRES   REMARKS
BEAUFORT       PTCLDY    46  42  86 CALM      30.26S
CEDAR ISLAND   NOT AVBL
JACKSONVILLE   CLOUDY    48  46  93 CALM      30.25S
PINEY ISLAND   CLOUDY   N/A N/A N/A NE5       30.25F
WILMINGTON     MOCLDY    47  46  97 N3        30.25S


$$

NCZ011>013-027>030-043-044-078>080-089-090>093-098-171100-
COASTAL PLAIN

CITY           SKY/WX    TMP DP  RH WIND       PRES   REMARKS
AHOSKIE          N/A     43  40  91 CALM      30.25F
CLINTON        PTCLDY    47  46  97 CALM      30.26S
ELIZABETHTOWN  CLOUDY    49  48  99 CALM      30.25F
GOLDSBORO      MOCLDY    46  46 100 CALM      30.23F
GREENVILLE     CLOUDY    46  43  87 CALM      30.26F
HAVELOCK       CLOUDY    47  42  83 CALM      30.27S
KENANSVILLE    CLOUDY    46  45  93 CALM      30.25F
KINSTON        CLOUDY    46  44  96 CALM      30.26F
NEW BERN       CLOUDY    45  42  89 CALM      30.27S
RICHLANDS      CLOUDY    47  45  93 CALM      30.26F
ROCKY MOUNT    CLOUDY    47  44  90 S3        30.25F
WASHINGTON     CLOUDY    45  40  85 CALM      30.26F
WHITEVILLE     CLOUDY    50  47  90 CALM      30.24F

$$

AMZ130-135-150-152-154-156-158-170-250-252-270-ANZ085-086-088-633-658-670-171100-
MARINE OBSERVATIONS

STATION/POSITION TIME  TEMP    WIND        PRES    WAVE   SWELL
                       AIR SEA DIR/SP/G            HT/PER HT/PER
                 (UTC) (F)     (DEG/KT/KT) (MB)    (FT/S) (FT/S)
CHESAPEAKE LIGHT NOT AVBL
64 E VA BEACH    0950   53 54  300/  6/  8 1024.6    3/ 9   2/ 9
DUCK             1000   44 44  350/  5/  5 1024.3
2 E DUCK         1000      44                N/A     2/ 9
OREGON INLET     1000   45 48  340/  2/  2 1024.8
13E OREGON INLT  NOT AVBL
HATTERAS CG      1000   46 51   10/  5/  6 1024.1
DIAMOND BUOY     0950   55 73  360/  8/ 10 1024.6    3/ 8   2/ 8
CAPE LOOKOUT     1000   49      30/  3/  4 1023.9
BEAUFORT LAB     1000   47 49   10/  4/  5 1023.5
30 SE NEW RVR IN 1008   58 61   90/  6/  8 1024.2
30 SE NEW RVR IN 1013      61                N/A     3/10
27 SE WRIGHTSVLE 1008   63 68  100/  6/ 10 1023.8
5 SE WRIGHTSVLE  1008   53      40/  8/ 10 1023.8
225 S CAPE HAT   0950   71 72  180/ 14/ 16 1024.7    4/ 9   3/ 9
41 SE CHARLESTON 0950   70 70  140/  4/  6 1023.2    3/ 8   3/ 8

$$




USA.gov is the U.S. government's official web portal to all federal, state and local government web resources and services.